362  
ASUS42 KRAH 231710  
RWRRAH  
NORTH CAROLINA WEATHER ROUNDUP  
NATIONAL WEATHER SERVICE RALEIGH NC  
1200 PM EST SAT JAN 23 2021  
 
NOTE: "FAIR" INDICATES FEW OR NO CLOUDS BELOW 12,000 FEET WITH NO  
SIGNIFICANT WEATHER AND/OR S TO VISIBILITY
.  
 
NCZ001-053-055-056-065-067-231800-  
WESTERN NORTH CAROLINA  
 
CITY SKY/WX TMP DP RH WIND PRES REMARKS
 
ASHEVILLE SUNNY 41 6 23 N16G23 30.21F  
JEFFERSON SUNNY 30 1 29 W13G20 30.17S WCI 20  
MORGANTON SUNNY 47 4 17 N8 30.26F  
HICKORY SUNNY 46 3 17 N13G21 30.22F  
WILKESBORO NOT AVBL  
RUTHERFORDTON SUNNY 48 7 18 NW12 30.23F  
MOUNT AIRY SUNNY 42 3 20 CALM 30.25S  
BOONE N/A 33 -1 23 N15G23 30.18S WCI 22  

 
 
NCZ021-022-025-041-071-084-088-231800-  
CENTRAL NORTH CAROLINA  
 
CITY SKY/WX TMP DP RH WIND PRES REMARKS
 
CHARLOTTE MOSUNNY 49 10 20 N10 30.24F  
GREENSBORO SUNNY 43 9 24 NW10 30.22F  
WINSTON-SALEM SUNNY 43 6 21 N13 30.24F  
RALEIGH-DURHAM SUNNY 44 12 27 VRB7G18 30.23S  
FORT BRAGG NOT AVBL  
FAYETTEVILLE SUNNY 49 15 25 N15G22 30.22S  
BURLINGTON SUNNY 46 6 19 N15 30.23F  
ROXBORO SUNNY 41 9 26 NW14 30.24F  
HENDERSON SUNNY 40 8 26 NW12 30.21F WCI 33  
LOUISBURG SUNNY 43 14 31 NW12 30.23F  
LAURINBURG SUNNY 52 12 20 N18 30.23F  

 
 
NCZ011-015-027-028-043-044-047-080-103-231800-  
NORTHEASTERN NORTH CAROLINA  
 
CITY SKY/WX TMP DP RH WIND PRES REMARKS
 
ROCKY MT-WILSO SUNNY 45 17 32 NW9 30.21F  
GREENVILLE SUNNY 45 18 33 N12G18 30.20F  
WASHINGTON SUNNY 46 19 33 NW9 30.19S  
ELIZABETH CITY SUNNY 43 22 43 N18G24 30.18S  
MANTEO MOSUNNY 43 26 50 N15G22 30.17R  
CAPE HATTERAS SUNNY 47 30 51 N9G20 30.14F  

 
 
NCZ078-087-090-091-093-098-101-231800-  
SOUTHEASTERN NORTH CAROLINA  
 
CITY SKY/WX TMP DP RH WIND PRES REMARKS
 
GOLDSBORO NOT AVBL  
KINSTON SUNNY 48 21 34 N14G20 30.20F  
KENANSVILLE NOT AVBL  
NEW BERN SUNNY 47 22 37 N14G23 30.18F  
CHERRY POINT SUNNY 47 22 37 NW18 30.17F  
BEAUFORT SUNNY 49 23 36 N18G25 30.15F  
JACKSONVILLE SUNNY 49 16 26 N18 30.17F  
WILMINGTON SUNNY 54 17 23 N15 30.17F  

 
 
 
 
CLICK HERE TO GO TO PREVIOUS BULLETINS.

The Nexlab NC Page Main Text Page